Location: Chiroubles
(46.1812°N, 4.6660°E)
Time: 03:00:12
(UTC+00:00)

Cosmos 1378 Rocket - Pass Details

Date: 15 August 2020
Orbit: 600 x 628 km, 82.5° (Epoch: 27 September)

Event Time Altitude Azimuth Distance (km) Brightness Sun altitude
Rises 21:58:53 0° 354° (N) 2,925 8.1 -25.5°
Reaches altitude 10° 22:01:10 10° 358° (N) 2,011 7.0 -25.7°
Enters shadow 22:04:49 51° 36° (NE) 791 4.1 -26.0°
